Find Starlink 37937

NORAD ID: 69944 Int'l Des: 2026-157 Owner: SPXS Country: US Constellation: starlink operational
LEOCIRCULAR

現在のビュー

3D地球を読み込み中...

About Starlink 37937

Starlink 37937 (NORAD 69944) is a starlink constellation satellite (v2 mini) launched Jul 9, 2026 by SPXS of US. It operates in LEO, CIRCULAR orbit with a mass of 575.00 kg.

次回通過

Passes for default location (London). Set your location on the main map for personalized predictions.

高度履歴

Loading altitude history...

軌道要素

1 69944U 26157B 26237.91668981 .00007827 00000-0 24266-3 0 9998
2 69944 53.1589 93.1805 0000800 86.4887 39.9035 15.34384199 6035
Epoch: Aug 25, 2026 • Age: 8 hours

現在のステータス

高度 468.1 km
遠地点 / 近地点 N/A
速度 7.64 km/s
衛星直下点 50.19°N, 147.84°E
打ち上げ日 Jul 9, 2026
運用期間 0.1 years
タイプ internet

技術仕様

分類 Payload
質量 575.00 kg
乾燥質量 530.00 kg
総質量 575.00 kg
長さ 0.30 m
直径 4.10 m
スパン 29.00 m
形状 Box + pan
製造者 SPXS
バスタイプ Starlink V2MO
フェーズステータス In Orbit
所有者/国 SPXS/US

Most Searched